カタログに戻る

COSMOS 2251 DEB

運用中VLEO
NORAD 37316·DEBRIS·🇷🇺 Russia

打ち上げ Jun 16, 1993 から Plesetsk Cosmodrome

Loading…

次のパス (今後24時間)

TLE

最新Source: Space-Track

元期: Sep 14, 2026, 01:31 UTC

1 37316U 93036BKG 26257.06384134  .00030099  00000-0  17537-2 0  9998
2 37316  74.0146 177.7207 0028042 189.6881 170.3775 15.11538021902819

AllMySatでCOSMOS 2251 DEBをリアルタイム追跡

Download on the App Store